Location: Zagreb
(45.8000°N, 16.0000°E)
Time: 20:15:46
(UTC+02:00)

ISS - Pass Details

Date: 02 October 2021
Orbit: 417 x 423 km, 51.6° (Epoch: 23 October)

Event Time Altitude Azimuth Distance (km) Brightness Sun altitude
Rises 19:29:43 0° 298° (WNW) 2,365 1.5 -10.5°
Reaches altitude 10° 19:31:50 10° 301° (WNW) 1,500 0.2 -10.9°
Maximum altitude 19:35:10 65° 24° (NNE) 464 -3.7 -11.5°
Enters shadow 19:37:21 20° 103° (ESE) 1,040 -2.4 -11.8°
